Stations météo

réclame
Mon MeteoGroup
AWG, Pays-Bas (6208): Température de l'air & dewpoint: 19.02.2020 07:00:00 - 25.02.2020 07:00:00 (CET)AWG, Pays-Bas (6208): Vitesse du vent & gusts: 19.02.2020 07:00:00 - 25.02.2020 07:00:00 (CET)AWG, Pays-Bas (6208): Direction du vent: 19.02.2020 07:00:00 - 25.02.2020 07:00:00 (CET)AWG, Pays-Bas (6208): reduced air pressure: 19.02.2020 07:00:00 - 25.02.2020 07:00:00 (CET)AWG, Pays-Bas (6208): visibility: 19.02.2020 07:00:00 - 25.02.2020 07:00:00 (CET)
Date & Time tt [°C] td [°C] ff [km/h] ff [knt] fx [km/h] fx [knt] dd ppp [hPa] vv [km]
25.02.2020 07:00:00 5,8 3,1 59 32 65 35 W 995,2 10
25.02.2020 06:00:00 6,7 2,6 52 28 54 29 WSW 995,6 10
25.02.2020 05:00:00 6,8 2,7 52 28 61 33 W 995,8 10
25.02.2020 04:00:00 7,0 2,8 54 29 58 31 W 996,1 10
25.02.2020 03:00:00 7,1 2,5 61 33 61 33 W 996,3 10
25.02.2020 02:00:00 7,2 2,8 54 29 61 33 W 996,6 10
25.02.2020 01:00:00 7,4 3,1 47 25 61 33 W 996,5 14
25.02.2020 00:00:00 7,8 3,1 54 29 65 35 W 996,3 10
24.02.2020 23:00:00 9,0 7,7 55 30 61 33 WSW 996,0 10
24.02.2020 22:00:00 8,8 7,8 57 31 61 33 SW 996,2 10
24.02.2020 21:00:00 8,9 7,8 57 31 61 33 SW 996,6 10
24.02.2020 20:00:00 8,7 7,7 54 29 58 31 SW 996,9 10
24.02.2020 19:00:00 8,8 7,9 47 25 58 31 WSW 997,2 12
24.02.2020 18:00:00 8,8 8,2 54 29 58 31 SW 997,6 10
24.02.2020 17:00:00 8,2 7,9 43 23 50 27 SW 998,6 2,2
24.02.2020 16:00:00 7,1 6,7 40 21 54 29 SSW 999,6 2,6
24.02.2020 15:00:00 4,8 4,4 40 21 50 27 S 1001,5 2,6
24.02.2020 14:00:00 3,7 2,8 46 25 54 29 SE 1004,4 6
24.02.2020 13:00:00 3,1 1,7 52 28 54 29 SE 1008,1 4,1
24.02.2020 12:00:00 3,7 2,1 46 25 54 29 S 1010,8 5
24.02.2020 11:00:00 4,1 2,1 50 27 58 31 SSW 1012,6 5
24.02.2020 10:00:00 5,2 3,7 31 17 40 21 S 1014,5 10
24.02.2020 09:00:00 5,2 3,9 34 18 36 19 SSW 1016,8 10
24.02.2020 08:00:00 5,5 3,9 21 11 25 14 SSW 1018,2 10
24.02.2020 07:00:00 5,7 4,5 14 8 18 10 SW 1019,0 10
24.02.2020 06:00:00 5,9 4,3 18 10 22 12 WSW 1019,9 8
24.02.2020 05:00:00 6,7 4,4 24 13 25 14 WNW 1020,0 10
24.02.2020 04:00:00 6,8 4,3 29 16 32 18 WNW 1019,9 10
24.02.2020 03:00:00 6,9 3,9 35 19 47 25 WNW 1019,7 10
24.02.2020 02:00:00 6,9 3,7 42 23 47 25 WNW 1019,2 10
24.02.2020 01:00:00 7,0 3,3 44 24 47 25 WNW 1018,9 10
24.02.2020 00:00:00 7,1 3,0 52 28 65 35 WNW 1018,0 10
23.02.2020 23:00:00 7,1 2,6 50 27 61 33 WNW 1017,1 10
23.02.2020 22:00:00 7,0 2,5 55 30 72 39 W 1016,1 10
23.02.2020 21:00:00 7,0 1,9 61 33 61 33 WNW 1015,0 10
23.02.2020 20:00:00 6,9 1,5 59 32 72 39 WNW 1013,1 10
23.02.2020 19:00:00 4,1 1,4 59 32 83 45 WNW 1010,9 10
23.02.2020 18:00:00 5,9 2,1 65 35 76 41 WNW 1009,6 10
23.02.2020 17:00:00 5,2 3,7 50 27 65 35 WNW 1008,7 10
23.02.2020 16:00:00 5,4 4,7 68 37 68 37 NW 1005,9 3,6
23.02.2020 15:00:00 6,7 6,0 41 22 50 27 WNW 1004,0 10
23.02.2020 14:00:00 6,3 6,2 14 8 18 10 W 1003,1 18
23.02.2020 13:00:00 6,0 6,0 8 4 22 12 S 1002,4 8
23.02.2020 12:00:00 5,7 5,3 22 12 25 14 S 1002,7 5
23.02.2020 11:00:00 5,6 4,8 21 11 25 14 SSW 1004,0 7
23.02.2020 10:00:00 5,7 5,1 18 10 25 14 SSW 1005,4 4,2
23.02.2020 09:00:00 5,9 4,3 26 14 36 19 WSW 1007,2 8
23.02.2020 08:00:00 6,4 5,4 35 19 40 21 WSW 1008,7 9
23.02.2020 07:00:00 6,6 5,5 29 16 40 21 WSW 1010,2 6
23.02.2020 06:00:00 6,3 5,2 34 18 47 25 WSW 1011,9 8
23.02.2020 05:00:00 6,8 4,6 41 22 47 25 WSW 1012,8 10
23.02.2020 04:00:00 7,5 4,1 41 22 50 27 WSW 1013,9 10
23.02.2020 03:00:00 8,1 4,7 46 25 50 27 W 1014,2 10
23.02.2020 02:00:00 8,1 4,7 50 27 50 27 W 1014,8 10
23.02.2020 01:00:00 8,1 4,6 37 20 47 25 WSW 1014,7 10
23.02.2020 00:00:00 7,8 3,6 39 21 47 25 W 1015,1 10
22.02.2020 23:00:00 7,9 3,0 46 25 58 31 W 1014,8 10
22.02.2020 22:00:00 8,0 3,0 59 32 61 33 W 1014,3 10
22.02.2020 21:00:00 8,7 3,0 50 27 58 31 W 1013,8 10
22.02.2020 20:00:00 8,8 4,0 52 28 61 33 W 1014,0 10
22.02.2020 19:00:00 9,0 4,3 42 23 58 31 W 1013,2 10
22.02.2020 18:00:00 9,1 3,6 52 28 58 31 W 1012,6 10
22.02.2020 17:00:00 9,2 4,5 50 27 58 31 W 1012,1 10
22.02.2020 16:00:00 8,9 4,2 50 27 58 31 W 1011,7 10
22.02.2020 15:00:00 9,2 4,0 59 32 61 33 W 1010,7 10
22.02.2020 14:00:00 8,8 6,1 48 26 54 29 WSW 1010,4 10
22.02.2020 13:00:00 8,7 8,0 43 23 68 37 W 1010,1 8
22.02.2020 12:00:00 8,8 7,3 63 34 68 37 SW 1008,7 7
22.02.2020 11:00:00 8,9 6,9 68 37 68 37 SW 1008,6 8
22.02.2020 10:00:00 8,7 6,5 67 36 68 37 SW 1008,6 8
22.02.2020 09:00:00 8,3 6,3 67 36 68 37 SW 1008,5 8
22.02.2020 08:00:00 8,1 6,3 65 35 72 39 SW 1008,9 8
22.02.2020 07:00:00 8,0 6,3 68 37 72 39 SW 1009,6 8
22.02.2020 06:00:00 8,2 6,0 63 34 72 39 SW 1010,2 8
22.02.2020 05:00:00 8,4 5,7 65 35 72 39 SW 1010,3 10
22.02.2020 04:00:00 8,4 5,6 59 32 65 35 SW 1011,9 10
22.02.2020 03:00:00 8,6 5,8 59 32 65 35 SSW 1012,1 10
22.02.2020 02:00:00 8,7 5,9 50 27 65 35 SSW 1012,9 12
22.02.2020 01:00:00 8,5 6,1 50 27 65 35 SW 1014,4 11
22.02.2020 00:00:00 8,5 5,9 57 31 61 33 SSW 1015,2 10
21.02.2020 23:00:00 8,5 5,8 55 30 61 33 SW 1015,6 10
21.02.2020 22:00:00 8,4 5,8 54 29 58 31 SW 1016,1 10
21.02.2020 21:00:00 8,3 6,0 55 30 58 31 SW 1016,7 9
21.02.2020 20:00:00 8,2 5,7 52 28 58 31 SW 1017,1 10
21.02.2020 19:00:00 7,8 5,5 55 30 58 31 SW 1017,3 10
21.02.2020 18:00:00 7,7 4,9 54 29 54 29 SW 1018,0 10
21.02.2020 17:00:00 7,3 5,4 50 27 50 27 SW 1018,2 9
21.02.2020 16:00:00 7,5 4,9 52 28 58 31 SW 1018,5 10
21.02.2020 15:00:00 7,6 4,7 50 27 54 29 SW 1018,7 10
21.02.2020 14:00:00 7,3 4,5 48 26 50 27 SW 1018,9 10
21.02.2020 13:00:00 7,0 4,5 39 21 43 23 SW 1019,8 10
21.02.2020 12:00:00 6,9 4,0 37 20 36 19 SW 1019,8 10
21.02.2020 11:00:00 6,9 3,9 35 19 40 21 WSW 1019,7 10
21.02.2020 10:00:00 6,7 3,1 39 21 40 21 W 1019,7 10
21.02.2020 09:00:00 6,5 3,2 42 23 47 25 W 1019,3 9
21.02.2020 08:00:00 6,6 3,0 46 25 50 27 W 1018,2 10
21.02.2020 07:00:00 6,6 2,8 48 26 54 29 W 1017,2 10
21.02.2020 06:00:00 6,7 2,6 50 27 54 29 W 1016,6 10
21.02.2020 05:00:00 6,7 2,1 50 27 61 33 W 1015,8 10
21.02.2020 04:00:00 6,7 2,3 55 30 58 31 W 1014,6 10
21.02.2020 03:00:00 6,7 2,0 55 30 65 35 WNW 1013,5 10
21.02.2020 02:00:00 6,7 1,6 57 31 61 33 WNW 1012,4 10
21.02.2020 01:00:00 6,6 0,9 59 32 65 35 WNW 1011,2 10
21.02.2020 00:00:00 6,8 1,4 61 33 65 35 WNW 1009,7 10
20.02.2020 23:00:00 7,1 1,1 70 38 79 43 WNW 1008,4 10
20.02.2020 22:00:00 6,3 3,1 46 25 79 43 WNW 1007,0 10
20.02.2020 21:00:00 6,5 3,7 46 25 58 31 WNW 1005,7 10
20.02.2020 20:00:00 5,9 4,2 67 36 68 37 WNW 1004,0 8
20.02.2020 19:00:00 6,9 5,7 59 32 76 41 SW 1001,5 7
20.02.2020 18:00:00 8,1 6,9 72 39 79 43 SSW 1000,8 1,3
20.02.2020 17:00:00 7,9 6,7 67 36 76 41 SSW 1001,5 3,4
20.02.2020 16:00:00 8,6 6,4 61 33 68 37 SSW 1003,4 10
20.02.2020 15:00:00 8,5 6,3 47 25 68 37 SSW 1004,4 23
20.02.2020 14:00:00 9,4 5,7 50 27 58 31 SSW 1005,9 10
20.02.2020 13:00:00 8,9 6,0 52 28 54 29 SSW 1006,8 10
20.02.2020 12:00:00 9,0 6,2 52 28 65 35 SSW 1007,7 10
20.02.2020 11:00:00 8,7 6,4 48 26 58 31 - 1008,2 10
20.02.2020 10:00:00 8,5 6,7 42 23 50 27 SSW 1009,1 10
20.02.2020 09:00:00 8,6 6,7 46 25 50 27 SSW 1009,5 10
20.02.2020 08:00:00 8,4 6,8 44 24 47 25 SW 1009,7 10
20.02.2020 07:00:00 8,4 6,9 41 22 47 25 SSW 1009,8 10
20.02.2020 06:00:00 8,3 6,9 46 25 47 25 SW 1010,1 10
20.02.2020 05:00:00 7,7 7,0 39 21 54 29 - 1010,4 9
20.02.2020 04:00:00 7,0 6,4 44 24 54 29 - 1010,9 6
20.02.2020 03:00:00 6,6 6,0 52 28 54 29 SSW 1011,7 5
20.02.2020 02:00:00 6,3 5,6 50 27 58 31 SSW 1012,5 5
20.02.2020 01:00:00 5,8 5,2 43 23 54 29 SSW 1013,3 6
20.02.2020 00:00:00 5,7 4,9 44 24 47 25 SSW 1014,1 8
19.02.2020 23:00:00 5,9 4,0 35 19 43 23 - 1015,0 10
19.02.2020 22:00:00 5,7 3,4 37 20 40 21 SSW 1015,3 10
19.02.2020 21:00:00 5,7 3,0 29 16 36 19 - 1016,3 10
19.02.2020 20:00:00 6,1 2,9 28 15 29 16 SW 1016,9 10
19.02.2020 19:00:00 6,2 2,3 29 16 29 16 WSW 1017,2 10
19.02.2020 18:00:00 6,1 2,4 31 17 36 19 W 1017,0 10
19.02.2020 17:00:00 6,4 2,5 39 21 40 21 W 1016,6 10
19.02.2020 16:00:00 6,6 2,1 41 22 40 21 W 1016,2 10
19.02.2020 15:00:00 6,5 2,2 44 24 43 23 W 1015,7 10
19.02.2020 14:00:00 6,5 2,8 42 23 47 25 W 1015,7 10
19.02.2020 13:00:00 6,7 2,7 46 25 50 27 W 1014,9 10
19.02.2020 12:00:00 6,7 3,1 50 27 50 27 W 1014,0 10
19.02.2020 11:00:00 6,7 3,3 48 26 54 29 WNW 1012,7 9
19.02.2020 10:00:00 6,5 3,0 46 25 54 29 WNW 1011,7 8
19.02.2020 09:00:00 6,6 1,6 50 27 50 27 WNW 1011,1 10
19.02.2020 08:00:00 6,4 2,4 37 20 65 35 WNW 1010,0 10
19.02.2020 07:00:00 6,2 1,8 43 23 61 33 WNW 1009,0 15

tt = Température de l'air
td = dewpoint
ff = Vitesse du vent
fx = gusts
dd = Direction du vent
ppp = reduced air pressure
vv = visibility

stations d'obs. à proximité